Regional Weather Roundup
Issued by NWS Jackson, KY

Home | Current Version | Previous Version | Graphics & Text | Print | Product List | Glossary On
Versions: 1 2 3 4 5 6 7 8 9 10 11 12 13 14 15 16 17 18 19 20 21 22 23 24 25 26 27 28 29 30 31 32 33 34 35 36 37 38 39 40 41 42 43 44 45 46 47 48 49 50
000
ASUS43 KJKL 010910
RWRJKL

EAST KENTUCKY HOURLY WEATHER ROUNDUP
NATIONAL WEATHER SERVICE JACKSON KY
400 AM EST WED MAR 01 2017

NOTE: "FAIR" INDICATES FEW OR NO CLOUDS BELOW 12,000 FEET WITH
NO SIGNIFICANT WEATHER AND/OR OBSTRUCTIONS TO VISIBILITY.

* THESE REPORTS ARE NOT UNDER NWS QUALITY CONTROL AND MAY NOT
  REPORT WEATHER SUCH AS PRECIPITATION AND FOG.

KYZ079-080-083-085-087-088-110-112-115-119-120-011000
...EASTERN KENTUCKY...

CITY           SKY/WX    TMP DP  RH WIND       PRES   REMARKS
JACKSON        MOCLDY    63  56  78 S9G20     29.78F
LONDON         CLOUDY    66  56  70 SW18G30   29.84F
SOMERSET*      CLOUDY    64  55  72 S9G17     29.83F
MONTICELLO*    CLOUDY    68  59  73 S15G28    29.82F
WILLIAMSBURG*  CLOUDY    66  59  77 S18G32    29.84F
MIDDLESBORO*   CLOUDY    63  60  89 SW9G30    29.91F
HARLAN APT*    CLOUDY    64  55  72 CALM      29.89F
PIKE CO APT*   CLOUDY    65  58  78 S14G22    29.84F
BIG SANDY APT* MOSUNNY   65  58  76 S13G18    29.80F
MOREHEAD APT*  CLOUDY    64  57  77 S10G17    29.76F
ASHLAND*       CLOUDY    64  59  82 SW12G21   29.71F
$$

KYZ035-036-041-042-044-050-067-078-099-011000
...CENTRAL KENTUCKY...

CITY           SKY/WX    TMP DP  RH WIND       PRES   REMARKS
MT STERLING*   CLOUDY    64  59  82 SW18G28   29.73F
FLEMING/MASON* LGT RAIN  63  60  91 SW20G30   29.69F
DANVILLE*      CLOUDY    64  59  82 SW25G38   29.74F
LEXINGTON      TSTM      61  57  87 W28G48    29.71R FOG
FRANKFORT      TSTM      62  56  80 SW14G22   29.69R
LOUISVILLE     CLOUDY    63  59  87 SW15G22   29.64F THUNDER
LEBANON*       PTSUNNY   66  61  82 S25G37    29.71R
GLASGOW*       CLOUDY    68  60  75 SW20G30   29.76F
BOWLING GREEN  CLOUDY    70  62  76 SW20G28   29.74F
$$

KYZ091>093-OHZ055-061-077-WVZ005-015-034-035-042-011000
...SOUTHERN OHIO/WEST VIRGINIA...

CITY           SKY/WX    TMP DP  RH WIND       PRES   REMARKS
COVINGTON      TSTM      58  56  93 S9        29.61F
COLUMBUS       LGT RAIN  60  57  89 S12       29.64F
DAYTON         LGT RAIN  58  55  90 S20G26    29.57F
WILMINGTON     TSTM      58  57  97 SW17G26   29.64F FOG
HUNTINGTON     LGT RAIN  62  57  83 S15G23    29.74F
CHARLESTON     CLOUDY    65  55  70 S17G36    29.76F THUNDER
PINEVILLE*     CLOUDY    58  54  85 MISG      29.94S
BECKLEY        CLOUDY    60  52  74 SW17G25   29.91F
BLUEFIELD      CLOUDY    58  50  75 SW12      29.95S
LOGAN CO APT*  CLOUDY    63  55  77 S9G22     29.84F
$$

VAZ002-007-008-TNZ017-027-036-066-071-011000
...SOUTHWEST VIRGINIA/EAST TENNESSEE...

CITY           SKY/WX    TMP DP  RH WIND       PRES   REMARKS
WISE*          LGT RAIN  59  54  82 SW16      29.94F
JONESVILLE*    FOG       54  54 100 CALM      29.94F VSB 1/2
ABINGDON*      CLOUDY    56  56 100 CALM      29.95F
BRISTOL        CLOUDY    53  53 100 CALM      29.94F FOG
MORRISTOWN*    CLOUDY    54  54 100 CALM      29.93F FOG
SEVIERVILLE*   PTSUNNY   59  54  82 CALM      29.93F
KNOXVILLE      CLOUDY    67  57  70 SW21G26   29.93F
LAFOLLETTE*    CLOUDY    66  59  77 SW18G39   29.93S
OAK RIDGE      CLOUDY    63  59  87 SW8       29.94F
CROSSVILLE     CLOUDY    62  58  86 S9G21     29.94F
NASHVILLE      CLOUDY    70  61  73 S21       29.82F
$$

...KEY TO REMARKS...
VSB - VISIBILITY IN MILES
WCI - WIND CHILL INDEX
HX  - HEAT INDEX

$$



USA.gov is the U.S. government's official web portal to all federal, state and local government web resources and services.